timestamp,wind_dir_avg,wind_spd_avg,wind_spd_max_dir,wind_spd_gust,battery_voltage,lat,long
2021-03-29 00:04:01+00:00,228.0,6.24,222.0,6.96,12.57,47.59359,-54.27349
2021-03-29 00:14:01+00:00,225.0,6.15,217.0,7.12,12.41,47.59359,-54.27349
2021-03-29 00:24:01+00:00,226.0,5.62,234.0,6.35,12.41,47.59359,-54.27349
2021-03-29 00:34:01+00:00,224.0,5.23,228.0,5.56,12.41,47.59359,-54.27349
2021-03-29 00:44:01+00:00,188.0,5.14,193.0,6.24,12.41,47.59359,-54.27349
2021-03-29 00:54:01+00:00,185.0,6.07,186.0,7.61,12.41,47.59359,-54.27349
2021-03-29 01:04:01+00:00,189.0,5.59,183.0,7.37,12.41,47.59359,-54.27349
2021-03-29 01:14:01+00:00,190.0,6.15,197.0,7.74,12.41,47.59359,-54.27349
2021-03-29 01:24:01+00:00,201.0,6.7,202.0,8.01,12.41,47.59359,-54.27349
2021-03-29 01:34:01+00:00,190.0,6.34,197.0,7.82,12.41,47.59359,-54.27349
2021-03-29 01:44:01+00:00,192.0,6.59,178.0,7.55,12.41,47.59359,-54.27349
2021-03-29 01:54:01+00:00,195.0,5.13,196.0,6.02,12.41,47.59359,-54.27349
2021-03-29 02:04:01+00:00,187.0,7.72,185.0,8.76,12.41,47.59359,-54.27349
2021-03-29 02:14:01+00:00,191.0,7.17,199.0,9.13,12.41,47.59359,-54.27349
2021-03-29 02:24:01+00:00,198.0,5.93,199.0,7.54,12.41,47.59359,-54.27349
2021-03-29 02:34:01+00:00,181.0,8.18,187.0,8.96,12.41,47.59359,-54.27349
2021-03-29 02:44:01+00:00,205.0,7.43,204.0,8.95,12.41,47.59359,-54.27349
2021-03-29 02:54:01+00:00,183.0,6.96,184.0,7.87,12.41,47.59359,-54.27349
2021-03-29 03:04:01+00:00,199.0,7.47,197.0,9.0,12.41,47.59359,-54.27349
2021-03-29 03:14:01+00:00,212.0,8.15,214.0,8.83,12.41,47.59359,-54.27349
2021-03-29 03:24:01+00:00,203.0,8.14,200.0,10.23,12.41,47.59359,-54.27349
2021-03-29 03:34:01+00:00,202.0,6.38,197.0,8.19,12.41,47.59359,-54.27349
2021-03-29 03:44:01+00:00,205.0,8.63,199.0,10.92,12.41,47.59359,-54.27349
2021-03-29 03:54:01+00:00,199.0,7.72,194.0,8.66,12.41,47.59359,-54.27349
2021-03-29 04:04:01+00:00,196.0,9.52,203.0,11.58,12.41,47.59359,-54.27349
2021-03-29 04:14:01+00:00,203.0,9.17,202.0,10.04,12.41,47.59359,-54.27349
2021-03-29 04:24:01+00:00,188.0,10.98,192.0,13.48,12.41,47.59359,-54.27349
2021-03-29 04:34:01+00:00,187.0,7.85,183.0,9.5,12.41,47.59359,-54.27349
2021-03-29 04:44:01+00:00,198.0,9.85,196.0,11.23,12.41,47.59359,-54.27349
2021-03-29 04:54:01+00:00,203.0,10.59,203.0,11.86,12.41,47.59359,-54.27349
2021-03-29 05:04:01+00:00,203.0,10.3,201.0,11.19,12.41,47.59359,-54.27349
2021-03-29 05:14:01+00:00,192.0,10.31,192.0,11.12,12.41,47.59359,-54.27349
2021-03-29 05:24:01+00:00,208.0,10.39,209.0,12.01,12.41,47.59359,-54.27349
2021-03-29 05:34:01+00:00,188.0,9.74,187.0,10.72,12.41,47.59359,-54.27349
2021-03-29 05:44:01+00:00,194.0,11.87,193.0,13.52,12.41,47.59359,-54.27349
2021-03-29 05:54:01+00:00,199.0,11.99,197.0,13.65,12.41,47.59359,-54.27349
2021-03-29 06:04:01+00:00,198.0,11.81,201.0,14.1,12.41,47.59359,-54.27349
2021-03-29 06:14:01+00:00,199.0,10.84,201.0,11.96,12.33,47.59359,-54.27349
2021-03-29 06:24:01+00:00,200.0,13.78,198.0,15.79,12.33,47.59359,-54.27349
2021-03-29 06:34:01+00:00,202.0,12.29,195.0,16.3,12.33,47.59359,-54.27349
2021-03-29 06:44:01+00:00,203.0,11.94,207.0,13.37,12.33,47.59359,-54.27349
2021-03-29 06:54:01+00:00,189.0,11.35,195.0,13.55,12.33,47.59359,-54.27349
2021-03-29 07:04:01+00:00,196.0,13.14,196.0,15.73,12.33,47.59359,-54.27349
2021-03-29 07:14:01+00:00,202.0,12.27,199.0,13.66,12.33,47.59359,-54.27349
2021-03-29 07:24:01+00:00,189.0,11.03,193.0,13.12,12.33,47.59359,-54.27349
2021-03-29 07:34:01+00:00,186.0,10.74,185.0,11.64,12.33,47.59359,-54.27349
2021-03-29 07:44:01+00:00,180.0,9.64,196.0,11.34,12.33,47.59359,-54.27349
2021-03-29 07:54:01+00:00,178.0,11.16,173.0,12.62,12.33,47.59359,-54.27349
2021-03-29 08:04:01+00:00,181.0,10.29,190.0,11.85,12.33,47.59359,-54.27349
2021-03-29 08:14:01+00:00,171.0,10.05,170.0,11.9,12.25,47.59359,-54.27349
2021-03-29 08:24:01+00:00,173.0,10.89,180.0,12.99,12.25,47.59359,-54.27349
2021-03-29 08:34:01+00:00,174.0,9.93,183.0,11.1,12.25,47.59359,-54.27349
2021-03-29 08:44:01+00:00,176.0,11.78,173.0,13.43,12.25,47.59359,-54.27349
2021-03-29 08:54:01+00:00,176.0,12.53,177.0,16.09,12.25,47.59359,-54.27349
2021-03-29 09:04:01+00:00,177.0,11.83,173.0,13.31,12.25,47.59359,-54.27349
2021-03-29 09:14:01+00:00,176.0,12.08,193.0,14.64,12.25,47.59359,-54.27349
2021-03-29 09:24:01+00:00,174.0,11.58,179.0,13.15,12.25,47.59359,-54.27349
2021-03-29 09:34:01+00:00,175.0,11.65,173.0,13.62,12.25,47.59359,-54.27349
2021-03-29 09:44:01+00:00,178.0,10.51,183.0,12.18,12.25,47.59359,-54.27349
2021-03-29 09:54:01+00:00,176.0,12.83,180.0,15.31,12.25,47.59359,-54.27349
2021-03-29 10:04:01+00:00,174.0,13.49,171.0,15.35,12.25,47.59359,-54.27349
2021-03-29 10:14:01+00:00,173.0,12.0,177.0,13.62,12.17,47.59359,-54.27349
2021-03-29 10:24:01+00:00,172.0,12.34,182.0,14.42,12.17,47.59359,-54.27349
2021-03-29 10:34:01+00:00,179.0,13.54,195.0,15.36,12.17,47.59359,-54.27349
2021-03-29 10:44:01+00:00,175.0,12.61,174.0,14.52,12.17,47.59359,-54.27349
2021-03-29 10:54:01+00:00,170.0,14.3,170.0,16.16,12.17,47.59359,-54.27349
2021-03-29 11:04:01+00:00,169.0,14.27,171.0,16.87,12.17,47.59359,-54.27349
2021-03-29 11:14:01+00:00,173.0,12.42,172.0,14.46,12.25,47.59359,-54.27349
2021-03-29 11:24:01+00:00,162.0,14.38,154.0,17.74,12.25,47.59359,-54.27349
2021-03-29 11:34:01+00:00,168.0,12.19,158.0,15.51,12.25,47.59359,-54.27349
2021-03-29 11:44:01+00:00,160.0,14.38,146.0,17.22,12.25,47.59359,-54.27349
2021-03-29 11:54:01+00:00,166.0,13.8,151.0,17.11,12.25,47.59359,-54.27349
2021-03-29 12:04:01+00:00,165.0,12.84,169.0,15.27,12.25,47.59359,-54.27349
2021-03-29 12:14:01+00:00,163.0,15.61,153.0,18.22,12.41,47.59359,-54.27349
2021-03-29 12:24:01+00:00,172.0,15.35,175.0,17.66,12.41,47.59359,-54.27349
2021-03-29 12:34:01+00:00,171.0,16.22,170.0,20.95,12.41,47.59359,-54.27349
2021-03-29 12:44:01+00:00,164.0,12.8,154.0,15.25,12.41,47.59359,-54.27349
2021-03-29 12:54:01+00:00,164.0,14.4,146.0,17.05,12.41,47.59359,-54.27349
2021-03-29 13:04:01+00:00,167.0,13.11,168.0,14.68,12.41,47.59359,-54.27349
2021-03-29 13:14:01+00:00,166.0,15.16,159.0,18.39,12.81,47.59359,-54.27349
2021-03-29 13:24:01+00:00,165.0,16.29,163.0,19.62,12.81,47.59359,-54.27349
2021-03-29 13:34:01+00:00,165.0,13.96,157.0,17.44,12.81,47.59359,-54.27349
2021-03-29 13:44:01+00:00,165.0,14.55,167.0,17.02,12.81,47.59359,-54.27349
2021-03-29 13:54:01+00:00,162.0,15.17,156.0,19.79,12.81,47.59359,-54.27349
2021-03-29 14:04:01+00:00,159.0,15.49,151.0,18.73,12.81,47.59359,-54.27349
2021-03-29 14:14:01+00:00,165.0,18.59,161.0,22.16,13.6,47.59359,-54.27349
2021-03-29 14:24:01+00:00,170.0,15.89,176.0,18.38,13.6,47.59359,-54.27349
2021-03-29 14:34:01+00:00,170.0,15.36,155.0,18.86,13.6,47.59359,-54.27349
2021-03-29 14:44:01+00:00,175.0,18.56,178.0,22.06,13.6,47.59359,-54.27349
2021-03-29 14:54:01+00:00,173.0,16.33,182.0,19.28,13.6,47.59359,-54.27349
2021-03-29 15:04:01+00:00,170.0,18.84,183.0,21.73,13.6,47.59359,-54.27349
2021-03-29 15:14:01+00:00,172.0,17.82,162.0,21.47,13.68,47.59359,-54.27349
2021-03-29 15:24:01+00:00,165.0,17.19,148.0,19.43,13.68,47.59359,-54.27349
2021-03-29 15:34:01+00:00,170.0,17.19,169.0,20.86,13.68,47.59359,-54.27349
2021-03-29 15:44:01+00:00,164.0,16.49,155.0,18.37,13.68,47.59359,-54.27349
2021-03-29 15:54:01+00:00,157.0,18.12,156.0,22.53,13.68,47.59359,-54.27349
2021-03-29 16:04:01+00:00,156.0,18.59,154.0,23.82,13.68,47.59359,-54.27349
2021-03-29 16:14:01+00:00,158.0,16.34,158.0,19.6,13.53,47.59359,-54.27349
2021-03-29 16:24:01+00:00,162.0,15.59,156.0,17.34,13.53,47.59359,-54.27349
2021-03-29 16:34:01+00:00,170.0,14.19,169.0,16.85,13.53,47.59359,-54.27349
2021-03-29 16:44:01+00:00,166.0,14.36,168.0,17.73,13.53,47.59359,-54.27349
2021-03-29 16:54:01+00:00,169.0,17.13,171.0,21.49,13.53,47.59359,-54.27349
2021-03-29 17:04:01+00:00,170.0,19.5,170.0,24.3,13.53,47.59359,-54.27349
2021-03-29 17:14:01+00:00,163.0,19.12,161.0,23.68,13.21,47.59359,-54.27349
2021-03-29 17:24:01+00:00,162.0,21.28,165.0,26.54,13.21,47.59359,-54.27349
2021-03-29 17:34:01+00:00,170.0,20.75,163.0,24.19,13.21,47.59359,-54.27349
2021-03-29 17:44:01+00:00,166.0,21.72,164.0,24.27,13.21,47.59359,-54.27349
2021-03-29 17:54:01+00:00,166.0,22.9,162.0,29.77,13.21,47.59359,-54.27349
2021-03-29 18:04:01+00:00,167.0,23.47,173.0,27.39,13.21,47.59359,-54.27349
2021-03-29 18:14:01+00:00,163.0,21.24,161.0,27.13,13.13,47.59359,-54.27349
2021-03-29 18:24:01+00:00,166.0,22.18,161.0,25.8,13.13,47.59359,-54.27349
2021-03-29 18:34:01+00:00,165.0,21.97,160.0,27.26,13.13,47.59359,-54.27349
2021-03-29 18:44:01+00:00,161.0,23.12,157.0,26.32,13.13,47.59359,-54.27349
2021-03-29 18:54:01+00:00,162.0,21.71,160.0,26.56,13.13,47.59359,-54.27349
2021-03-29 19:04:01+00:00,167.0,20.5,172.0,24.43,13.13,47.59359,-54.27349
2021-03-29 19:14:01+00:00,163.0,22.32,166.0,27.56,12.97,47.59359,-54.27349
2021-03-29 19:24:01+00:00,163.0,22.06,156.0,25.11,12.97,47.59359,-54.27349
2021-03-29 19:34:01+00:00,165.0,23.87,167.0,28.82,12.97,47.59359,-54.27349
2021-03-29 19:44:01+00:00,168.0,23.94,165.0,28.88,12.97,47.59359,-54.27349
2021-03-29 19:54:01+00:00,169.0,25.72,169.0,29.97,12.97,47.59359,-54.27349
2021-03-29 20:04:01+00:00,170.0,22.43,177.0,27.94,12.97,47.59359,-54.27349
2021-03-29 20:14:01+00:00,170.0,22.69,165.0,26.7,12.73,47.59359,-54.27349
2021-03-29 20:24:01+00:00,173.0,26.65,169.0,31.75,12.73,47.59359,-54.27349
2021-03-29 20:34:01+00:00,174.0,22.01,179.0,25.0,12.73,47.59359,-54.27349
2021-03-29 20:44:01+00:00,175.0,25.93,181.0,31.61,12.73,47.59359,-54.27349
2021-03-29 20:54:01+00:00,172.0,22.83,170.0,27.52,12.73,47.59359,-54.27349
2021-03-29 21:04:01+00:00,177.0,21.97,180.0,26.31,12.73,47.59359,-54.27349
2021-03-29 21:14:01+00:00,185.0,22.49,180.0,25.71,12.57,47.59359,-54.27349
2021-03-29 21:24:01+00:00,184.0,21.73,182.0,26.21,12.57,47.59359,-54.27349
2021-03-29 21:34:01+00:00,184.0,23.49,186.0,27.66,12.57,47.59359,-54.27349
2021-03-29 21:44:01+00:00,192.0,21.71,189.0,26.22,12.57,47.59359,-54.27349
2021-03-29 21:54:01+00:00,193.0,20.82,199.0,23.65,12.57,47.59359,-54.27349
2021-03-29 22:04:01+00:00,196.0,19.45,206.0,23.97,12.57,47.59359,-54.27349
2021-03-29 22:14:01+00:00,192.0,15.76,191.0,18.94,12.49,47.59359,-54.27349
2021-03-29 22:24:01+00:00,189.0,16.21,188.0,18.67,12.49,47.59359,-54.27349
2021-03-29 22:34:01+00:00,189.0,14.69,190.0,17.57,12.49,47.59359,-54.27349
2021-03-29 22:44:01+00:00,190.0,14.82,189.0,16.11,12.49,47.59359,-54.27349
2021-03-29 22:54:01+00:00,225.0,10.85,229.0,12.22,12.49,47.59359,-54.27349
2021-03-29 23:04:01+00:00,212.0,12.47,213.0,13.99,12.49,47.59359,-54.27349
2021-03-29 23:14:01+00:00,207.0,15.41,214.0,18.48,12.41,47.59359,-54.27349
2021-03-29 23:24:01+00:00,216.0,15.16,214.0,18.03,12.41,47.59359,-54.27349
2021-03-29 23:34:01+00:00,216.0,15.21,209.0,18.0,12.41,47.59359,-54.27349
2021-03-29 23:44:01+00:00,215.0,14.5,212.0,16.13,12.41,47.59359,-54.27349
2021-03-29 23:54:01+00:00,217.0,11.69,216.0,13.55,12.41,47.59359,-54.27349
